Simultaneous Nadir Overpasses (SNOs) Predictions

Prediction of SNOs near US between NOAA-19 and NPP Satellite Orbit:

Table of predicted SNOs near US for the next 10.0 days since TLE Epoch: 7/28/2013
Index Date (NOAA-19) Time (NOAA-19) NOAA-19 Lat,Lon Date (NPP) Time (NPP) NPP Lat,Lon Distance(km) Time Diff (sec)
1 08/03/2013 19:10:45 49.96, -93.41 08/03/2013 19:07:26 49.53, -95.96 189.08 199
2 08/03/2013 20:52:50 49.99,-118.94 08/03/2013 20:48:57 49.59,-121.36 179.00 233
3 08/04/2013 07:35:09 23.87, -84.86 08/04/2013 07:27:36 24.26, -86.69 191.23 453
4 08/04/2013 09:17:48 21.86,-110.89 08/04/2013 09:09:41 22.21,-112.59 179.05 487




NCC Satellite Simultaneous Nadir Overpasses (SNOs) Prediction Service
